Nebraska City, NE

8:02 AM CDT on September 22, 2017 (GMT -0500)
Nebraska City Municipal

Weather History for KAFK - April, 2013

Change the Weather History Date:

Tuesday, April 9, 2013

  Actual Average (KSDA) Record (KSDA)
Temperature  
Mean Temperature 51 °F -  
Max Temperature 67 °F 60 °F 86 °F (2011)
Min Temperature 36 °F 35 °F 21 °F (2003)
Degree Days  
Heating Degree Days 14    
Growing Degree Days 1 (Base 50)    
Moisture  
Dew Point 51 °F    
Average Humidity 94    
Maximum Humidity 100    
Minimum Humidity 80    
Precipitation  
Precipitation 0.21 in - - ()
Sea Level Pressure  
Sea Level Pressure 29.72 in    
Wind  
Wind Speed 12 mph (NE)    
Max Wind Speed 24 mph    
Max Gust Speed 31 mph    
Visibility 7 miles    
Events Rain , Thunderstorm    
Averages and records for this station are not official NWS values.
T = Trace of Precipitation, MM = Missing Value Source: NWS Daily Summary

Daily Weather History Graph

Daily Weather History Graph

Search for Another Location

Airport or City:

Trip Planner

Search our weather history database for the weather conditions in past years. The results will help you decide how hot, cold, wet, or windy it might be!

Date:

Astronomy

Apr. 09, 2013 Rise Set
Actual Time 6:53 AM CDT 7:56 PM CDT
Civil Twilight 6:25 AM CDT 8:24 PM CDT
Nautical Twilight 5:52 AM CDT 8:58 PM CDT
Astronomical Twilight 5:17 AM CDT 9:33 PM CDT
Moon 6:17 AM CDT (4/9) 7:33 PM CDT (4/9)
Length of Visible Light 13h 59m
Length of Day
13h 03m
Waning Crescent, 1% of the Moon is Illuminated
Apr 9
Waning Crescent
Apr 10
New
Apr 18
First Quarter
Apr 25
Full
May 2
Last Quarter

Hourly Weather History & Observations

Time (CDT) Temp. Windchill Dew Point Humidity Pressure Visibility Wind Dir Wind Speed Gust Speed Precip Events Conditions
12:15 AM 63.1 °F - 61.2 °F 93% 29.68 in 10.0 mi SSE 5.8 mph - N/A   Overcast
12:35 AM 63.5 °F - 60.8 °F 91% 29.68 in 10.0 mi SE 9.2 mph - N/A   Overcast
12:55 AM 63.9 °F - 60.8 °F 90% 29.67 in 10.0 mi SE 9.2 mph - N/A   Overcast
1:15 AM 63.3 °F - 60.4 °F 90% 29.66 in 10.0 mi SSE 8.1 mph - N/A   Mostly Cloudy
1:35 AM 62.8 °F - 60.4 °F 92% 29.64 in 10.0 mi SE 9.2 mph - N/A   Scattered Clouds
1:55 AM 62.6 °F - 60.1 °F 91% 29.64 in 10.0 mi SE 11.5 mph - N/A   Scattered Clouds
2:15 AM 61.7 °F - 59.9 °F 94% 29.64 in 7.0 mi SSE 9.2 mph - N/A   Clear
2:35 AM 61.7 °F - 59.9 °F 94% 29.63 in 7.0 mi SSE 10.4 mph 16.1 mph N/A   Scattered Clouds
2:55 AM 61.9 °F - 59.7 °F 93% 29.61 in 10.0 mi SSE 8.1 mph - N/A   Clear
3:15 AM 62.4 °F - 59.9 °F 91% 29.60 in 10.0 mi SSE 12.7 mph - N/A   Clear
3:35 AM 62.2 °F - 59.9 °F 92% 29.60 in 10.0 mi SSE 13.8 mph 17.3 mph N/A   Scattered Clouds
3:55 AM 63.0 °F - 59.9 °F 90% 29.60 in 10.0 mi SSE 13.8 mph 20.7 mph N/A   Mostly Cloudy
4:15 AM 63.5 °F - 59.4 °F 86% 29.60 in 10.0 mi SSE 12.7 mph 18.4 mph N/A Thunderstorm Mostly Cloudy
4:35 AM 63.5 °F - 58.8 °F 85% 29.60 in 10.0 mi SSE 12.7 mph 16.1 mph N/A   Overcast
4:55 AM 64.0 °F - 58.1 °F 81% 29.60 in 10.0 mi SSE 13.8 mph 18.4 mph N/A   Overcast
5:15 AM 64.0 °F - 58.1 °F 81% 29.60 in 10.0 mi SSE 15.0 mph 19.6 mph N/A   Overcast
5:35 AM 64.2 °F - 57.9 °F 80% 29.60 in 10.0 mi South 16.1 mph 21.9 mph N/A   Overcast
5:55 AM 63.9 °F - 58.1 °F 81% 29.61 in 10.0 mi South 13.8 mph 20.7 mph N/A   Overcast
6:15 AM 63.9 °F - 58.1 °F 81% 29.65 in 10.0 mi South 6.9 mph - N/A   Overcast
6:35 AM 63.5 °F - 58.1 °F 83% 29.65 in 10.0 mi South 6.9 mph - N/A   Overcast
6:55 AM 63.0 °F - 58.5 °F 85% 29.66 in 7.0 mi South 10.4 mph - N/A   Heavy Drizzle
7:15 AM 61.9 °F - 60.4 °F 95% 29.66 in 7.0 mi South 10.4 mph - 0.01 in   Drizzle
7:35 AM 61.3 °F - 60.3 °F 96% 29.66 in 7.0 mi South 11.5 mph - 0.01 in   Scattered Clouds
7:55 AM 61.7 °F - 60.8 °F 97% 29.66 in 7.0 mi South 11.5 mph - 0.01 in   Clear
8:15 AM 62.6 °F - 61.3 °F 96% 29.67 in 7.0 mi South 10.4 mph - N/A   Scattered Clouds
8:35 AM 63.5 °F - 61.7 °F 94% 29.67 in 10.0 mi South 11.5 mph - N/A   Clear
8:55 AM 64.4 °F - 62.1 °F 92% 29.67 in 10.0 mi South 13.8 mph 19.6 mph N/A   Scattered Clouds
9:15 AM 64.9 °F - 62.8 °F 93% 29.67 in 10.0 mi South 12.7 mph - N/A   Mostly Cloudy
9:35 AM 64.9 °F - 62.6 °F 92% 29.67 in 10.0 mi South 12.7 mph - N/A   Overcast
9:55 AM 66.7 °F - 63.3 °F 89% 29.68 in 10.0 mi SSW 10.4 mph 19.6 mph N/A   Overcast
10:15 AM 62.8 °F - 61.0 °F 94% 29.69 in 7.0 mi Calm Calm - N/A   Overcast
10:35 AM 61.2 °F - 59.4 °F 94% 29.69 in 7.0 mi North 5.8 mph - N/A   Overcast
10:55 AM 57.2 °F - 55.6 °F 94% 29.70 in 3.0 mi North 9.2 mph - N/A   Overcast
11:15 AM 53.8 °F - 52.2 °F 94% 29.72 in 7.0 mi North 12.7 mph 18.4 mph N/A   Overcast
11:35 AM 51.6 °F - 50.4 °F 95% 29.73 in 3.0 mi North 15.0 mph 18.4 mph N/A   Overcast
11:55 AM 49.3 °F - 48.2 °F 96% 29.75 in 3.0 mi North 17.3 mph 20.7 mph N/A   Overcast
12:15 PM 48.4 °F - 47.5 °F 97% 29.76 in 4.0 mi North 17.3 mph 21.9 mph N/A   Overcast
12:35 PM 47.8 °F - 46.9 °F 97% 29.74 in 3.0 mi North 16.1 mph 21.9 mph N/A   Overcast
12:55 PM 47.3 °F - 46.4 °F 97% 29.74 in 4.0 mi North 15.0 mph 20.7 mph N/A   Overcast
1:15 PM 46.9 °F - 46.4 °F 98% 29.75 in 2.5 mi North 16.1 mph 21.9 mph N/A   Overcast
1:35 PM 46.8 °F - 46.0 °F 97% 29.75 in 2.5 mi North 17.3 mph 21.9 mph N/A   Overcast
1:55 PM 46.8 °F - 46.2 °F 98% 29.76 in 2.0 mi NNE 19.6 mph - N/A   Drizzle
2:15 PM 46.6 °F - 46.0 °F 98% 29.77 in 2.5 mi NNE 16.1 mph - N/A Rain Light Rain
2:35 PM 46.4 °F 39.5 °F 45.9 °F 98% 29.78 in 2.0 mi North 17.3 mph 24.2 mph N/A Rain Rain
2:55 PM 46.4 °F 38.7 °F 45.9 °F 98% 29.78 in 3.0 mi North 20.7 mph 26.5 mph N/A   Drizzle
3:15 PM 45.5 °F 36.9 °F 44.8 °F 97% 29.75 in 4.0 mi NNE 24.2 mph 29.9 mph N/A Rain Light Rain
3:35 PM 45.0 °F 36.6 °F 44.6 °F 99% 29.75 in 5.0 mi NNE 21.9 mph - N/A   Overcast
3:55 PM 44.6 °F 36.4 °F 44.1 °F 98% 29.76 in 7.0 mi NNE 20.7 mph 29.9 mph N/A   Overcast
4:15 PM 44.2 °F 35.9 °F 43.7 °F 98% 29.77 in 7.0 mi North 20.7 mph 26.5 mph N/A   Overcast
4:35 PM 44.1 °F 35.0 °F 43.7 °F 99% 29.76 in 1.8 mi NNE 24.2 mph 31.1 mph 0.01 in Rain Light Rain
4:55 PM 44.1 °F 35.9 °F 43.7 °F 99% 29.75 in 2.0 mi NNE 19.6 mph - 0.01 in Rain Light Rain
5:15 PM 43.9 °F 36.8 °F 43.7 °F 99% 29.75 in 3.0 mi NNE 15.0 mph - N/A Rain Light Rain
5:35 PM 43.9 °F 36.5 °F 43.5 °F 99% 29.78 in 5.0 mi NNE 16.1 mph - 0.01 in Thunderstorm Unknown
5:55 PM 43.7 °F 35.7 °F 43.3 °F 99% 29.76 in 5.0 mi NNE 18.4 mph 23.0 mph 0.01 in   Light Drizzle
6:15 PM 43.5 °F 35.0 °F 43.2 °F 99% 29.75 in 10.0 mi NNE 20.7 mph 27.6 mph N/A   Overcast
6:35 PM 43.2 °F 35.0 °F 42.8 °F 99% 29.77 in 10.0 mi NNE 18.4 mph - N/A   Overcast
6:55 PM 43.2 °F 35.6 °F 42.8 °F 99% 29.79 in 10.0 mi North 16.1 mph - N/A Thunderstorm Overcast
7:15 PM 43.2 °F 35.9 °F 42.8 °F 99% 29.83 in 10.0 mi North 15.0 mph - N/A Rain , Thunderstorm Light Thunderstorms and Rain
7:35 PM 43.0 °F 35.4 °F 42.4 °F 98% 29.85 in 5.0 mi North 16.1 mph - 0.02 in Rain , Thunderstorm Rain
7:55 PM 42.3 °F 33.8 °F 41.9 °F 99% 29.81 in 5.0 mi North 18.4 mph 23.0 mph 0.05 in Rain , Thunderstorm Light Thunderstorms and Rain
8:15 PM 42.1 °F 33.9 °F 41.9 °F 99% 29.81 in 5.0 mi NNE 17.3 mph - 0.01 in Rain , Thunderstorm Light Thunderstorms and Rain
8:35 PM 41.9 °F 32.6 °F 41.5 °F 99% 29.81 in 7.0 mi NNE 21.9 mph 27.6 mph 0.03 in Rain , Thunderstorm Light Thunderstorms and Rain
8:55 PM 41.9 °F 33.7 °F 41.5 °F 99% 29.83 in 7.0 mi North 17.3 mph 21.9 mph 0.04 in Rain , Thunderstorm Light Thunderstorms and Rain
9:15 PM 41.9 °F 34.6 °F 41.4 °F 98% 29.86 in 4.0 mi North 13.8 mph - 0.02 in Rain , Thunderstorm Heavy Thunderstorms and Rain
9:55 PM 38.1 °F 28.4 °F 37.6 °F 98% 29.89 in 5.0 mi NNW 18.4 mph 24.2 mph 0.03 in Thunderstorm Drizzle
10:15 PM 36.5 °F 26.0 °F 36.1 °F 99% 29.89 in 2.0 mi North 19.6 mph 27.6 mph 0.06 in Rain , Thunderstorm Light Thunderstorms and Rain
10:35 PM 36.5 °F 26.0 °F 36.1 °F 99% 29.87 in 7.0 mi North 19.6 mph 25.3 mph 0.06 in   Overcast
10:55 PM 36.5 °F 25.7 °F 36.5 °F 100% 29.86 in 7.0 mi NNE 20.7 mph 27.6 mph 0.06 in   Overcast
11:15 PM 37.2 °F 27.0 °F 36.9 °F 99% 29.87 in 10.0 mi NNE 19.6 mph 28.8 mph N/A   Light Drizzle
11:35 PM 37.6 °F 28.8 °F 37.2 °F 99% 29.88 in 10.0 mi North 15.0 mph 20.7 mph N/A Thunderstorm Overcast
11:55 PM 37.4 °F 27.2 °F 36.7 °F 97% 29.90 in 10.0 mi North 19.6 mph 28.8 mph N/A Rain , Thunderstorm Light Thunderstorms and Rain